Tracking 30918 objects as of 2-Jul-2025
HD Live streaming from Space Station
objects crossing your sky now

STARLINK-5609

Track STARLINK-5609 now!
10-day predictions
STARLINK-5609 is classified as:


NORAD ID: 55348
Int'l Code: 2023-013T
Perigee: 565.3 km
Apogee: 567.1 km
Inclination: 43.0 °
Period: 95.8 minutes
Semi major axis: 6937 km
RCS: Unknown
Launch date: January 26, 2023
Source: United States (US)
Launch site: AIR FORCE EASTERN TEST RANGE (AFETR)
Your satellite tracking list
Your tracking list is empty




NASA's NSSDC Master Catalog

Two Line Element Set (TLE):
1 55348U 23013T   25182.83070741 -.00000366  00000-0 -12039-4 0  9998
2 55348  43.0028 223.4327 0001343 276.7508  83.3181 15.02536434133973
Source of the keplerian elements: AFSPC